AGGH

Honiara International Airport

Honiara, Solomon Islands
Issued Wind Visibility Ceiling Temperature Dew Point Humidity Barometer
Aug-22
18:00 UTC
140°
3 KTS
10,000+ meters   23° C
73° F
22° C
72° F
94% 29.85" Hg
1011 hPa
VFR
Aug-22
17:00 UTC
160°
5 KTS
10,000+ meters   23° C
73° F
22° C
72° F
94% 29.85" Hg
1011 hPa
VFR
Aug-22
16:00 UTC
10,000+ meters   23° C
73° F
23° C
73° F
100% 29.88" Hg
1012 hPa
VFR
Aug-22
15:00 UTC
140°
4 KTS
10,000+ meters   23° C
73° F
23° C
73° F
100% 29.88" Hg
1012 hPa
VFR
Aug-22
14:00 UTC
160°
5 KTS
10,000+ meters   23° C
73° F
23° C
73° F
100% 29.85" Hg
1011 hPa
VFR
Aug-22
13:00 UTC
10,000+ meters   24° C
75° F
24° C
75° F
100% 29.88" Hg
1012 hPa
VFR
Aug-22
12:00 UTC
230°
3 KTS
10,000+ meters   24° C
75° F
24° C
75° F
100% 29.88" Hg
1012 hPa
VFR
Aug-22
11:00 UTC
160°
3 KTS
10,000+ meters   25° C
77° F
23° C
73° F
89% 29.88" Hg
1012 hPa
VFR
Aug-22
10:00 UTC
070°
3 KTS
10,000+ meters   26° C
79° F
23° C
73° F
84% 29.88" Hg
1012 hPa
VFR
Aug-22
09:00 UTC
160°
3 KTS
10,000+ meters   26° C
79° F
22° C
72° F
79% 29.85" Hg
1011 hPa
VFR
Aug-22
08:00 UTC
110°
6 KTS
10,000+ meters   27° C
81° F
23° C
73° F
79% 29.85" Hg
1011 hPa
VFR
Aug-22
06:00 UTC
070°
12 KTS
10,000+ meters   28° C
82° F
24° C
75° F
79% 29.79" Hg
1009 hPa
VFR
Aug-22
05:00 UTC
070°
10 KTS
10,000+ meters   30° C
86° F
24° C
75° F
70% 29.79" Hg
1009 hPa
VFR
Aug-22
04:00 UTC
050°
10 KTS
10,000+ meters   30° C
86° F
25° C
77° F
75% 29.79" Hg
1009 hPa
VFR
Aug-22
03:00 UTC
070°
14 KTS
10,000+ meters   30° C
86° F
24° C
75° F
70% 29.79" Hg
1009 hPa
VFR
Aug-22
02:00 UTC
070°
14 KTS
10,000+ meters   30° C
86° F
25° C
77° F
75% 29.82" Hg
1010 hPa
VFR
Aug-22
01:00 UTC
200°
2 KTS
10,000+ meters   31° C
88° F
23° C
73° F
62% 29.85" Hg
1011 hPa
VFR
Aug-22
00:00 UTC
090°
2 KTS
10,000+ meters   29° C
84° F
23° C
73° F
70% 29.88" Hg
1012 hPa
VFR
Aug-21
23:00 UTC
140°
6 KTS
10,000+ meters Broken
3,500' AGL
28° C
82° F
23° C
73° F
74% 29.88" Hg
1012 hPa
VFR
Aug-21
21:00 UTC
180°
2 KTS
10,000+ meters Broken
10,000' AGL
25° C
77° F
23° C
73° F
89% 29.88" Hg
1012 hPa
VFR
Aug-21
20:00 UTC
230°
2 KTS
10,000+ meters   23° C
73° F
22° C
72° F
94% 29.85" Hg
1011 hPa
VFR
Aug-21
19:00 UTC
200°
2 KTS
10,000+ meters Overcast
10,000' AGL
23° C
73° F
22° C
72° F
94% 29.85" Hg
1011 hPa
VFR